User: anonymous   Login
Location: Unspecified
(0.0000°N, 0.0000°E)
Time: 09:52:23
(UTC+00:00)
Language:

Akebono - Orbit

View from above orbital plane
View from above orbital plane
View from above satellite
View from above satellite

Ground track
Ground track

The orbit data is extracted from the following two-line orbital elements,

1 19822U 89016A   20219.81391191 +.00016166 +78491-6 +28565-3 0  9997
2 19822 075.0137 006.2134 1722270 221.4481 124.2625 12.10216865045694
Epoch (UTC): 06 August 2020 19:32:01
Eccentricity: 0.1722270
inclination: 75.0137°
perigee height: 255 km
apogee height: 3015 km
right ascension of ascending node: 6.2134°
argument of perigee: 221.4481°
revolutions per day: 12.10216865
mean anomaly at epoch: 124.2625°
orbit number at epoch: 4569

The dashed part of the orbit path shows where the satellite is in the earth's shadow,  

DLR